Wind_Speed
8 8 8 7 7 7 7 7 7 7 6 6 6 7 7 8 8 7 7 7 7 7 7 7 6 7 7 7 7 7 7 8 7 8 9 9 8 8 8 8 8 9 9
7 7 7 7 7 8 8 8 8 7 7 7 7 8 8 8 8 8 8 8 7 8 8 7 8 8 8 8 9 9 9 9 9 10 10 10 10 10 9 9 9 10 10
8 7 7 7 8 8 8 8 8 8 8 8 9 9 9 9 10 9 8 8 9 9 10 9 9 9 10 10 10 10 10 10 11 12 12 12 12 12 10 10 11 11 11
8 8 7 8 8 9 9 9 9 10 10 10 10 10 10 10 10 10 10 10 10 10 10 10 10 10 10 10 11 11 12 12 13 13 14 13 13 12 12 13 13 12 12
9 8 8 8 10 10 10 10 11 11 11 11 11 11 11 11 11 11 11 11 11 11 11 11 11 10 11 11 11 12 13 13 14 14 14 14 14 13 14 14 14 13 13
10 10 10 10 11 11 11 11 12 12 12 11 12 12 12 12 12 12 13 13 12 12 12 13 13 12 12 12 12 12 13 14 14 14 15 15 15 14 15 15 15 14 15
13 12 12 13 13 12 12 12 12 12 13 13 13 13 13 13 14 14 14 14 14 13 13 14 13 13 13 13 13 13 13 13 14 14 15 16 16 16 16 17 16 16 16
13 13 14 14 13 13 13 13 13 13 14 14 14 14 14 14 14 15 15 15 14 14 14 14 14 14 14 14 13 13 13 14 14 15 15 16 16 17 17 17 18 18 18
15 14 15 15 15 14 14 14 15 15 15 15 15 15 15 15 16 16 16 15 14 14 15 15 15 15 15 15 15 15 16 16 16 17 17 17 18 18 18 18 19 19 19
17 17 16 16 16 16 15 15 15 15 16 16 16 16 16 16 16 16 16 16 16 15 15 16 16 16 17 17 17 17 18 18 19 19 19 19 19 19 20 20 21 21 22
18 17 18 18 18 18 18 17 17 16 17 17 18 17 17 17 17 18 18 18 18 18 17 18 18 18 18 19 19 19 19 20 20 21 21 22 22 22 22 22 23 24 24
20 20 20 20 19 19 18 18 18 18 18 18 19 19 19 19 19 20 20 20 20 20 19 19 19 20 20 20 20 20 20 21 21 22 23 23 23 24 24 24 25 25 26
22 22 21 20 20 20 20 20 20 20 20 20 20 21 21 21 21 22 22 22 22 21 21 21 21 21 21 22 22 22 23 23 23 23 24 24 25 25 26 25 25 26 27
23 22 21 21 21 21 21 21 22 22 22 22 22 23 22 23 23 23 24 24 24 24 24 23 23 23 23 24 24 24 25 25 25 25 25 25 26 26 26 26 26 26 27
23 23 23 22 22 22 22 23 23 24 25 25 25 25 24 24 25 25 25 26 26 26 26 25 25 24 24 25 25 26 26 26 26 26 26 26 26 26 26 27 27 27 28
24 23 23 23 23 23 24 24 25 26 26 27 27 27 27 27 26 26 26 27 27 27 26 27 26 26 26 26 27 27 28 28 27 27 27 27 27 27 27 27 28 28 28
25 24 24 24 24 24 25 25 26 27 28 29 29 29 29 28 29 29 29 28 28 28 28 28 28 28 28 28 29 29 29 29 29 29 28 27 27 28 28 27 28 28 28
26 25 24 24 24 25 26 27 27 28 29 29 29 30 30 29 30 30 30 30 30 29 29 29 30 30 30 30 30 30 30 30 29 28 28 28 28 28 28 28 28 28 29
25 25 25 25 25 25 26 27 28 29 29 30 30 30 30 29 29 29 29 29 30 29 29 30 30 30 30 30 30 30 29 29 28 28 29 29 29 29 29 29 29 29 29
26 25 25 26 26 26 27 28 28 28 28 29 29 28 29 29 28 28 28 29 29 29 28 28 29 29 29 29 29 28 29 29 29 29 29 28 28 28 29 29 29 30 30
27 27 27 27 27 27 27 27 27 27 28 28 28 28 28 28 28 28 28 28 28 28 28 28 28 28 28 28 28 28 29 30 30 30 30 29 28 28 29 29 30 30 30
28 28 27 28 28 28 27 28 28 28 29 28 28 28 28 28 28 28 28 28 28 28 28 28 28 29 29 29 29 28 29 30 30 30 30 29 28 28 28 28 29 30 30
28 28 27 26 27 28 28 28 29 29 29 29 29 29 29 29 29 28 28 28 28 27 27 28 28 28 28 28 29 29 29 29 29 29 30 30 30 29 29 29 29 29 29
28 28 27 27 27 28 28 29 29 29 30 30 30 30 30 30 30 29 29 29 28 28 29 29 29 28 28 29 29 30 30 29 29 29 30 30 30 30 30 29 29 29 29
28 28 27 27 28 28 29 29 29 30 30 31 31 31 31 29 28 28 28 28 29 29 29 29 29 29 29 29 30 30 30 30 30 30 30 30 30 30 29 29 29 29 29
27 27 27 28 28 29 29 29 29 30 31 31 31 31 30 29 28 29 29 29 29 29 30 29 29 29 29 29 29 29 30 30 30 31 30 29 29 28 29 30 29 28 28
Wind_Direction
358 2 3 2 1 358 357 358 354 351 353 354 353 349 343 340 334 329 327 325 321 323 326 327 323 319 311 303 306 306 301 299 297 295 295 296 297 293 294 291 292 290 288
349 353 353 355 356 356 355 354 350 347 344 341 341 338 338 336 333 329 325 324 321 322 319 315 312 309 307 301 300 303 299 296 294 291 291 293 293 293 290 291 295 294 289
338 346 344 345 347 347 348 350 345 339 336 332 332 328 326 326 330 327 323 321 319 318 314 314 312 307 303 300 298 299 300 299 298 295 293 292 290 290 288 288 291 294 292
323 331 334 333 337 339 338 335 333 329 327 325 325 324 320 319 322 320 316 315 315 315 311 307 306 305 301 298 296 296 296 297 298 297 295 295 293 289 289 289 291 292 294
319 320 321 323 326 329 327 325 325 324 322 319 317 317 318 317 315 314 310 308 309 310 309 305 302 301 301 298 295 295 297 296 296 296 295 294 290 285 288 288 289 291 292
309 311 309 316 318 320 320 321 321 320 318 315 313 311 309 310 312 312 308 304 303 303 304 304 300 299 301 302 299 298 299 298 297 295 294 291 290 287 288 286 288 289 291
298 301 300 304 309 312 314 316 316 316 316 314 312 310 307 306 308 310 309 309 306 303 301 300 300 299 301 302 300 301 302 301 299 298 295 293 292 292 289 288 287 289 290
290 295 296 296 300 303 306 308 311 313 314 313 310 307 305 305 306 307 308 307 307 303 302 300 298 296 297 298 299 298 299 300 299 300 299 299 297 295 293 293 289 287 289
284 287 291 293 294 295 298 301 304 307 310 311 308 306 304 305 306 307 308 307 305 303 300 301 299 296 295 296 297 294 295 296 296 297 298 298 297 295 292 291 290 290 290
281 282 288 290 289 292 295 297 298 302 306 311 309 305 303 303 304 304 305 305 304 303 302 303 300 296 295 296 295 292 293 293 294 294 297 297 297 297 292 290 289 289 289
282 282 283 285 286 288 290 292 293 297 301 305 307 305 304 305 304 302 302 300 300 299 298 298 298 295 293 292 291 291 293 293 292 292 295 296 295 294 293 290 288 287 288
278 277 278 280 282 284 284 286 290 294 298 300 302 301 300 301 302 300 299 297 296 296 294 293 294 293 291 289 288 289 290 291 290 290 291 291 292 292 291 289 288 286 287
278 278 278 280 280 281 282 284 287 290 293 296 299 299 298 299 299 299 297 294 294 293 293 292 292 291 289 288 288 289 289 289 289 289 290 289 289 290 290 288 289 289 288
277 279 279 279 278 278 280 283 284 286 290 293 295 297 297 296 297 297 296 293 291 291 292 291 290 289 287 287 288 289 289 288 287 288 289 289 289 290 289 289 290 290 289
277 277 278 278 276 275 279 281 283 284 288 290 292 294 295 295 294 294 294 293 291 289 289 288 287 287 287 287 288 289 289 289 288 287 288 289 289 290 288 287 289 288 289
278 279 279 278 277 277 279 281 282 284 287 289 291 293 293 293 292 293 293 293 291 289 288 288 286 286 288 289 289 287 288 289 288 287 287 287 288 288 288 287 287 288 288
277 279 282 280 278 278 281 282 283 284 286 288 290 291 292 293 293 293 292 291 289 289 287 286 286 287 287 289 289 287 287 287 289 288 288 288 289 287 287 286 286 287 287
279 279 279 279 280 280 282 284 284 285 286 288 290 290 291 292 293 293 293 291 288 286 285 285 286 286 287 288 288 287 286 288 290 290 290 289 288 288 287 286 285 285 286
274 275 276 276 278 280 284 285 286 286 287 289 290 290 290 292 292 293 294 293 292 288 286 284 284 285 286 287 288 288 287 286 288 289 290 290 288 288 287 287 286 284 285
277 278 279 279 280 282 284 287 286 287 288 289 289 289 290 291 291 291 293 294 293 290 287 286 286 287 288 288 288 289 287 287 288 289 290 290 289 288 288 287 286 287 285
275 276 279 279 280 282 284 286 287 287 288 289 289 290 291 291 290 290 292 293 294 292 288 286 286 287 288 289 288 287 285 287 288 289 289 288 288 288 288 288 288 288 286
272 275 278 281 282 283 284 285 287 287 289 290 289 290 290 290 290 290 291 293 292 292 291 289 288 288 287 288 289 289 288 288 288 289 290 289 288 289 289 289 289 288 287
274 278 279 283 284 284 285 286 288 289 289 290 289 289 289 289 290 290 291 292 292 293 294 293 291 289 288 288 290 290 290 289 289 289 290 290 289 288 288 288 289 289 289
273 278 280 283 286 286 286 286 288 289 289 289 288 288 287 288 288 290 291 293 293 293 293 293 292 291 289 289 289 289 290 290 291 290 290 290 290 289 287 287 287 288 289
272 277 279 281 285 285 286 287 287 288 289 289 288 288 288 288 288 289 291 293 294 293 292 291 291 290 290 290 289 289 289 290 290 290 291 291 291 289 287 286 285 285 286
272 275 278 280 284 286 285 287 288 289 290 289 289 289 288 288 290 290 292 293 293 293 292 291 291 290 290 289 290 291 291 290 290 290 291 290 290 289 287 287 287 286 286
Height
5910 5909 5908 5907 5907 5906 5905 5905 5904 5903 5903 5903 5902 5901 5901 5900 5899 5898 5898 5897 5897 5896 5895 5895 5894 5894 5893 5893 5893 5892 5892 5892 5891 5891 5891 5891 5890 5890 5890 5889 5889 5889 5889
5910 5909 5908 5907 5907 5906 5906 5905 5904 5903 5903 5902 5902 5901 5900 5899 5898 5898 5897 5896 5896 5895 5894 5894 5893 5893 5892 5892 5891 5891 5891 5890 5889 5889 5889 5889 5889 5888 5888 5887 5887 5887 5886
5910 5909 5908 5907 5907 5906 5906 5905 5904 5903 5902 5902 5901 5900 5899 5898 5898 5897 5896 5896 5895 5894 5893 5892 5892 5891 5891 5890 5890 5889 5889 5888 5888 5887 5887 5887 5886 5886 5886 5885 5885 5885 5884
5909 5908 5908 5907 5906 5906 5905 5904 5904 5903 5902 5901 5900 5899 5898 5898 5897 5896 5895 5894 5893 5893 5892 5891 5890 5889 5889 5888 5888 5887 5887 5886 5886 5885 5885 5884 5883 5883 5883 5883 5882 5882 5881
5908 5907 5906 5906 5905 5905 5904 5903 5902 5901 5900 5899 5898 5898 5897 5896 5895 5894 5893 5893 5892 5891 5890 5889 5888 5887 5886 5886 5885 5885 5884 5883 5883 5882 5882 5881 5880 5880 5880 5879 5879 5878 5878
5906 5906 5905 5904 5904 5903 5902 5902 5901 5900 5899 5898 5897 5896 5895 5894 5893 5892 5891 5891 5890 5889 5888 5887 5886 5885 5884 5884 5883 5882 5881 5881 5880 5879 5878 5878 5877 5877 5876 5876 5875 5875 5875
5905 5904 5904 5903 5902 5901 5900 5900 5899 5898 5897 5895 5894 5893 5893 5892 5891 5890 5889 5888 5887 5887 5885 5884 5883 5883 5882 5881 5880 5879 5878 5878 5877 5876 5875 5874 5874 5873 5873 5873 5872 5871 5871
5903 5902 5902 5901 5900 5899 5898 5897 5897 5896 5894 5893 5892 5891 5890 5889 5888 5887 5886 5885 5884 5883 5882 5881 5880 5880 5879 5878 5877 5876 5875 5874 5873 5873 5872 5871 5870 5869 5869 5868 5868 5867 5867
5900 5900 5899 5898 5897 5896 5896 5895 5895 5893 5892 5890 5889 5888 5887 5886 5885 5884 5883 5882 5881 5880 5879 5878 5877 5876 5875 5875 5874 5873 5872 5871 5870 5869 5868 5867 5866 5865 5864 5863 5863 5863 5862
5897 5896 5896 5895 5894 5893 5892 5892 5892 5890 5889 5887 5886 5884 5883 5883 5882 5881 5879 5878 5877 5876 5875 5874 5873 5872 5872 5871 5870 5869 5868 5867 5866 5865 5864 5863 5862 5861 5860 5859 5858 5857 5856
5893 5892 5892 5891 5891 5890 5889 5889 5888 5887 5886 5884 5882 5881 5880 5879 5878 5877 5876 5874 5873 5873 5872 5870 5869 5868 5867 5866 5865 5864 5863 5862 5861 5860 5859 5858 5857 5855 5855 5853 5852 5852 5851
5887 5887 5887 5887 5887 5886 5886 5885 5884 5883 5882 5880 5879 5877 5876 5875 5874 5873 5871 5870 5869 5868 5867 5866 5865 5864 5863 5862 5860 5859 5858 5857 5856 5854 5853 5852 5851 5849 5848 5847 5846 5845 5844
5883 5882 5882 5882 5882 5881 5881 5880 5879 5878 5877 5876 5875 5873 5872 5871 5869 5868 5866 5865 5864 5863 5862 5861 5860 5859 5857 5856 5855 5854 5852 5851 5850 5849 5847 5846 5844 5843 5842 5840 5839 5838 5837
5879 5878 5878 5877 5877 5877 5876 5875 5875 5873 5872 5871 5870 5868 5867 5865 5864 5863 5861 5860 5859 5857 5856 5855 5854 5853 5852 5850 5849 5848 5846 5845 5844 5842 5840 5839 5838 5836 5835 5834 5832 5831 5830
5873 5873 5873 5872 5872 5871 5871 5870 5869 5868 5867 5866 5864 5863 5861 5859 5858 5857 5855 5854 5852 5851 5850 5849 5848 5846 5845 5844 5843 5841 5840 5838 5837 5835 5833 5832 5831 5829 5828 5826 5825 5824 5823
5867 5867 5867 5866 5866 5866 5865 5865 5864 5862 5861 5860 5858 5857 5855 5854 5852 5850 5849 5847 5845 5844 5843 5842 5841 5840 5838 5837 5836 5834 5832 5831 5829 5828 5826 5824 5823 5822 5820 5819 5818 5816 5815
5861 5861 5861 5860 5860 5860 5859 5858 5857 5856 5855 5853 5852 5850 5848 5847 5845 5844 5842 5840 5838 5837 5835 5834 5833 5832 5831 5829 5828 5826 5824 5823 5822 5820 5818 5817 5815 5814 5812 5811 5810 5808 5807
5855 5855 5855 5854 5854 5853 5852 5851 5850 5849 5848 5846 5845 5843 5841 5840 5838 5836 5834 5832 5830 5828 5827 5826 5825 5824 5823 5821 5820 5818 5816 5815 5814 5812 5810 5809 5807 5805 5804 5803 5802 5801 5799
5849 5848 5848 5848 5847 5847 5846 5844 5843 5842 5840 5839 5837 5836 5834 5832 5830 5828 5826 5824 5822 5820 5819 5818 5817 5816 5814 5813 5811 5809 5808 5807 5805 5804 5802 5801 5799 5798 5796 5795 5794 5793 5791
5842 5840 5840 5841 5840 5839 5839 5838 5836 5835 5833 5832 5830 5828 5827 5825 5823 5821 5819 5817 5814 5812 5811 5810 5808 5807 5806 5804 5803 5801 5800 5799 5797 5796 5794 5793 5791 5789 5787 5786 5785 5784 5783
5836 5835 5835 5834 5833 5833 5831 5830 5829 5827 5826 5824 5823 5821 5819 5817 5816 5814 5812 5809 5807 5805 5803 5801 5800 5799 5797 5796 5795 5793 5791 5790 5789 5787 5786 5784 5783 5781 5779 5778 5776 5775 5774
5829 5828 5827 5827 5826 5825 5824 5823 5821 5820 5818 5817 5815 5814 5812 5810 5808 5806 5804 5802 5800 5798 5795 5793 5792 5790 5789 5788 5787 5785 5783 5781 5780 5778 5777 5775 5774 5772 5771 5769 5768 5766 5765
5821 5821 5820 5819 5819 5818 5817 5815 5814 5812 5811 5809 5808 5806 5804 5802 5800 5798 5796 5795 5792 5790 5788 5786 5784 5783 5781 5780 5778 5777 5775 5773 5771 5770 5768 5767 5765 5764 5762 5761 5759 5758 5756
5814 5814 5813 5813 5812 5810 5809 5808 5806 5805 5803 5801 5800 5798 5796 5795 5793 5791 5788 5786 5784 5782 5781 5779 5777 5775 5774 5772 5770 5769 5767 5765 5763 5761 5760 5758 5757 5755 5754 5752 5750 5749 5747
5807 5807 5806 5805 5804 5803 5802 5800 5799 5797 5795 5793 5792 5790 5788 5786 5785 5783 5781 5779 5777 5774 5773 5771 5769 5767 5765 5764 5762 5760 5758 5757 5755 5753 5751 5749 5748 5746 5744 5743 5742 5740 5739
5800 5800 5799 5798 5796 5795 5794 5793 5791 5789 5787 5785 5783 5781 5780 5778 5777 5775 5773 5771 5769 5767 5764 5762 5761 5758 5757 5754 5753 5751 5749 5748 5746 5744 5743 5741 5739 5737 5735 5734 5733 5731 5729